CAPE
0 nan nan nan nan nan nan nan nan nan nan nan nan nan nan 2 2 2 3 5 5 1 0 nan nan nan 1 12 13 13 14 16 17 17 17 14 12 12 9 11 11 14 15 16 16 16 17 17 17 18 20 19 19 19 23 26 26 28 30 29 29 30 30 29 29 30 31 32 29 29 29 28 26 26 24 24 24 24 25 27 27 28 28 31 31 34
0 0 nan nan nan nan nan nan nan nan nan nan nan nan nan nan 3 3 5 6 6 1 1 nan nan nan nan 6 11 11 13 15 16 16 13 9 8 8 8 11 11 12 11 12 12 11 12 14 14 16 18 19 22 22 23 25 25 26 27 25 25 28 27 26 26 26 27 24 24 24 23 22 21 21 20 21 21 21 24 25 25 28 30 33 33 36
0 0 nan nan nan nan nan nan nan nan nan nan nan nan nan nan 2 2 3 7 7 0 nan nan nan nan nan 1 10 10 10 11 12 12 10 7 7 7 8 8 8 9 8 7 7 7 7 9 9 13 16 19 20 20 21 23 23 24 24 23 23 24 23 24 24 23 23 23 22 22 21 21 19 19 22 22 24 24 26 29 29 30 35 40 40 45
nan 0 0 nan nan nan nan 0 nan nan nan 0 0 0 nan nan 1 1 1 nan nan nan nan nan nan nan nan nan 1 1 6 6 7 7 7 5 6 6 8 8 8 6 4 2 2 3 3 6 6 10 14 17 18 18 20 20 20 20 22 22 22 22 21 23 23 21 22 21 22 22 23 24 26 26 28 29 30 30 32 34 34 36 38 42 42 46
nan 0 1 0 0 0 nan 0 0 0 1 1 1 1 nan 0 0 0 0 nan nan nan nan nan nan nan nan nan nan nan 1 3 3 3 3 4 7 7 8 6 6 3 1 1 1 1 2 6 6 9 12 16 19 19 19 20 20 21 20 21 21 20 24 22 22 19 18 18 21 21 21 24 26 26 29 34 35 35 37 38 38 39 39 41 41 44
nan 0 1 0 0 0 1 0 1 1 2 0 nan nan nan nan 0 0 nan nan nan nan nan nan nan nan nan nan nan nan nan 2 3 3 3 5 6 6 4 2 2 0 nan nan nan 0 1 5 5 9 14 18 19 19 20 22 22 22 22 21 21 18 16 15 15 14 15 15 16 16 18 19 24 24 26 29 32 32 35 35 35 35 37 37 37 41
0 1 1 1 1 1 0 1 2 2 0 0 nan nan nan nan nan nan nan nan nan nan nan nan nan nan nan nan nan nan nan nan 0 0 1 1 0 0 nan nan nan nan nan nan nan 0 2 6 6 12 17 21 22 22 22 21 21 20 19 17 17 14 13 12 12 12 12 14 14 14 16 16 19 19 20 23 25 25 27 29 29 32 33 35 35 38
nan 0 0 0 0 0 0 0 0 0 nan nan nan nan nan nan nan nan nan nan nan nan nan nan nan nan nan nan nan nan nan nan nan nan nan nan nan nan nan nan nan nan nan 0 0 2 6 14 14 16 17 18 18 18 17 16 16 13 12 10 10 9 7 6 6 6 7 8 9 9 11 13 14 14 15 16 17 17 18 21 21 26 30 34 34 37
nan 0 0 nan nan nan nan 0 nan nan nan nan nan nan nan nan nan nan nan nan nan nan nan nan nan nan nan nan nan nan nan nan nan nan nan nan nan nan nan nan nan nan nan 0 0 2 6 8 8 12 13 14 14 14 13 12 12 8 7 6 6 4 3 3 3 4 4 5 7 7 9 10 12 12 13 13 14 14 16 19 19 24 29 34 34 37
nan nan nan nan nan nan nan nan nan nan nan nan nan nan nan nan nan nan nan nan nan nan nan nan nan nan nan nan nan nan nan nan nan nan nan nan nan nan nan nan nan nan nan nan nan 1 1 3 3 4 6 7 7 7 5 4 4 3 2 1 1 1 1 1 1 2 3 5 6 6 8 10 12 12 13 13 15 15 16 21 21 23 26 31 31 37
nan nan nan nan nan nan nan nan nan nan nan nan nan nan nan nan nan nan nan nan nan nan nan nan nan nan nan nan nan nan nan nan nan nan nan nan nan nan nan nan nan nan nan nan nan nan nan nan nan nan 0 0 nan nan nan nan nan nan nan nan nan nan 0 0 0 1 3 5 7 7 10 11 14 14 15 15 17 17 18 19 19 24 27 32 32 37
nan nan nan nan nan nan nan nan nan nan nan nan nan nan nan nan nan nan nan nan nan nan nan nan nan nan nan nan nan nan nan nan nan nan nan nan nan nan nan nan nan nan nan nan nan nan nan nan nan nan nan nan nan nan nan nan nan nan nan nan nan nan nan 0 0 2 4 7 11 11 12 14 18 18 19 18 18 18 19 20 20 22 26 32 32 36
nan nan nan nan nan nan nan nan nan nan nan nan nan nan nan nan nan nan nan nan nan nan nan nan nan nan nan nan nan nan nan nan nan nan nan nan nan nan nan nan nan nan nan nan nan nan nan nan nan nan nan nan nan nan nan nan nan nan nan nan nan nan 0 1 1 4 8 10 14 14 15 17 21 21 19 19 19 19 20 22 22 25 29 32 32 38
nan nan nan nan nan nan nan nan nan nan nan nan nan nan nan nan nan nan nan nan nan nan nan nan nan nan nan nan nan nan nan nan nan nan nan nan nan nan nan nan nan nan nan nan nan nan nan nan nan nan nan nan nan nan nan nan nan nan nan nan nan nan 1 4 4 6 10 13 15 15 17 20 21 21 21 21 21 21 21 23 23 24 29 30 30 35
nan nan nan nan nan nan nan nan nan nan nan nan nan nan nan nan nan nan nan nan nan nan nan nan nan nan nan nan nan nan nan nan nan nan nan nan nan nan nan nan nan nan nan nan nan nan nan nan nan nan nan nan nan nan nan nan nan nan nan 0 0 1 2 6 6 8 11 13 16 16 18 21 21 21 21 22 21 21 22 24 24 24 25 26 26 29
nan nan nan nan nan nan nan nan nan nan nan nan nan nan nan nan nan nan nan nan nan nan nan nan nan nan nan nan nan nan nan nan nan nan nan nan nan nan nan nan nan nan nan nan nan nan nan nan nan nan nan nan nan nan nan nan nan nan 0 0 0 2 3 5 5 7 10 13 16 16 17 18 19 19 17 18 18 18 19 20 20 21 22 22 22 24
nan nan nan nan nan nan nan nan nan nan nan nan nan nan nan nan nan nan nan nan nan nan nan nan nan nan nan nan nan nan nan nan nan nan nan nan nan nan nan nan nan nan nan nan nan nan nan nan nan nan nan nan nan nan nan nan nan nan nan 0 0 1 3 4 4 7 11 13 14 14 15 15 14 14 15 14 15 15 15 16 16 18 21 23 23 23
nan nan nan nan nan nan nan nan nan nan nan nan nan nan nan nan nan nan nan nan nan nan nan nan nan nan nan nan nan nan nan nan nan nan nan nan nan nan nan nan nan nan nan nan nan nan nan nan nan nan nan nan nan nan nan nan nan nan nan 0 0 0 1 3 3 6 8 11 13 13 14 13 11 11 10 12 13 13 14 16 16 19 21 22 22 22
nan nan nan nan nan nan nan nan nan nan nan nan nan nan nan nan nan nan nan nan nan nan nan nan nan nan nan nan nan nan nan nan nan nan nan nan nan nan nan nan nan nan nan nan nan nan nan nan nan nan nan nan nan nan nan nan nan nan nan nan nan 0 1 3 3 5 8 10 10 10 11 9 8 8 8 9 11 11 13 15 15 17 18 19 19 20
nan nan nan nan nan nan nan nan nan nan nan nan nan nan nan nan nan nan nan nan nan nan nan nan nan nan nan nan nan nan nan nan nan nan nan nan nan nan nan nan nan nan nan nan nan nan nan nan nan nan nan nan nan nan nan nan nan nan nan 0 0 1 1 2 2 4 6 8 8 8 7 7 7 7 7 8 9 9 11 13 13 14 15 17 17 17
nan nan nan nan nan nan nan nan nan nan nan nan nan nan nan nan nan nan nan nan nan nan nan nan nan nan nan nan nan nan nan nan nan nan nan nan nan nan nan nan nan nan nan nan nan nan nan nan nan nan nan nan nan nan nan nan nan nan nan 0 0 0 1 2 2 3 5 5 5 5 6 6 5 5 6 7 9 9 9 11 11 12 14 15 15 17
nan nan nan nan nan nan nan nan nan nan nan nan nan nan nan nan nan nan nan nan nan nan nan nan nan nan nan nan nan nan nan nan nan nan nan nan nan nan nan nan nan nan nan nan nan nan nan nan nan nan nan nan nan nan nan nan nan nan nan 0 0 0 1 1 1 2 3 4 4 4 4 4 5 5 6 7 8 8 9 10 10 11 13 15 15 16
nan nan nan nan nan nan nan nan nan nan nan nan nan nan nan nan nan nan nan nan nan nan nan nan nan nan nan nan nan nan nan nan nan nan nan nan nan nan nan nan nan nan nan nan nan nan nan nan nan nan nan nan nan nan nan nan nan nan nan nan nan 0 1 1 1 2 3 3 4 4 5 5 5 5 6 8 9 9 10 10 10 12 14 15 15 17
nan nan nan nan nan nan nan nan nan nan nan nan nan nan nan nan nan nan nan nan nan nan nan nan nan nan nan nan nan nan nan nan nan nan nan nan nan nan nan nan nan nan nan nan nan nan nan nan nan nan nan nan nan nan nan nan nan nan nan nan nan 0 0 1 1 1 2 3 3 3 4 4 6 6 8 9 10 10 10 12 12 13 15 15 15 17
nan nan nan nan nan nan nan nan nan nan nan nan nan nan nan nan nan nan nan nan nan nan nan nan nan nan nan nan nan nan nan nan nan nan nan nan nan nan nan nan nan nan nan nan nan nan nan nan nan nan nan nan nan nan nan nan nan nan nan nan nan 0 0 1 1 1 1 2 2 2 3 6 8 8 10 10 11 11 12 14 14 15 15 16 16 16
nan nan nan nan nan nan nan 14 31 31 nan nan nan nan nan nan nan nan nan nan nan nan nan nan nan nan nan nan nan nan nan nan nan nan nan nan nan nan nan nan nan nan nan nan nan nan nan nan nan nan nan nan nan nan nan nan nan nan nan nan nan nan 0 0 0 0 1 1 3 3 4 7 9 9 10 11 12 12 14 16 16 17 17 17 17 15
6 1 7 14 14 15 14 7 7 7 19 0 nan nan nan nan nan nan nan nan nan nan nan 1 1 0 nan nan nan nan nan nan nan nan nan nan nan nan nan nan nan nan nan nan nan nan nan nan nan nan nan nan nan nan nan nan nan nan nan nan nan nan nan nan nan nan 0 1 3 3 5 8 9 9 10 12 13 13 15 15 15 16 15 14 14 14
2 4 2 2 2 0 nan nan nan nan nan 4 12 12 nan nan nan nan nan nan nan nan nan nan nan 0 nan nan nan nan nan nan nan nan nan nan nan nan nan nan nan nan nan nan nan nan nan nan nan nan nan nan nan nan nan nan nan nan nan nan nan nan nan nan nan nan 0 1 2 2 5 7 10 10 12 13 14 14 14 15 15 16 15 10 10 nan
nan nan nan nan nan nan nan nan nan nan nan nan 1 1 nan nan nan nan nan nan nan nan nan 0 0 0 0 nan nan nan nan nan nan nan nan nan nan nan nan nan nan nan nan nan nan nan nan nan nan nan nan nan nan nan nan nan nan nan nan nan nan nan nan nan nan nan nan 0 2 2 5 7 11 11 12 13 14 14 15 16 16 16 12 5 5 nan
nan nan nan nan nan nan nan nan nan nan nan 0 1 1 nan nan nan nan nan nan nan nan nan nan nan 0 0 nan nan nan nan nan nan nan nan nan nan nan nan nan nan nan nan nan nan nan nan nan nan nan nan nan nan nan nan nan nan nan nan nan nan nan nan nan nan nan nan 0 2 2 5 8 10 10 11 12 13 13 14 16 16 13 4 nan nan nan
nan nan nan nan nan nan nan nan nan nan nan nan nan nan nan nan nan nan nan nan nan nan nan nan nan nan 0 0 nan nan nan nan nan nan nan nan nan nan nan nan nan nan nan nan nan nan nan nan nan nan nan nan nan nan nan nan nan nan nan nan nan nan nan nan nan nan nan 0 2 2 4 7 9 9 10 12 13 13 14 17 17 12 2 nan nan nan
nan nan nan nan nan nan nan nan nan nan nan nan nan nan nan nan nan nan nan nan nan nan nan nan nan nan nan nan nan nan nan nan nan nan nan nan nan nan nan nan nan nan nan nan nan nan nan nan nan nan nan nan nan nan nan nan nan nan nan nan nan nan nan nan nan nan nan 0 1 1 2 3 3 3 4 6 8 8 9 11 11 11 2 nan nan nan
nan nan nan nan nan nan nan nan nan nan nan nan nan nan nan nan nan nan nan nan nan nan nan nan nan nan nan nan nan nan nan nan nan nan nan nan nan nan nan nan nan nan nan nan nan nan nan nan nan nan nan nan nan nan nan nan nan nan nan nan nan nan nan nan nan nan nan nan nan nan 0 0 1 1 1 3 4 4 6 7 7 9 12 1 1 1
nan nan nan nan nan nan nan nan nan nan nan nan nan nan nan nan nan nan nan nan nan nan nan nan nan nan nan nan nan nan nan nan nan nan 0 nan nan nan nan nan nan nan nan nan nan nan nan nan nan nan nan nan nan nan nan nan nan nan nan nan nan nan nan nan nan nan nan nan nan nan nan nan nan nan nan nan 1 1 3 6 6 10 16 8 8 3
nan nan nan nan nan nan nan nan nan nan nan nan nan nan nan nan nan nan nan nan nan nan nan nan nan nan nan nan nan nan nan nan nan nan nan nan nan nan nan nan nan nan nan nan nan nan nan nan nan nan nan nan nan nan nan nan nan nan nan nan nan nan nan nan nan nan nan nan nan nan nan nan nan nan nan nan 0 0 5 9 9 13 16 23 23 14
nan nan nan nan nan nan nan nan nan nan nan nan nan nan nan nan nan nan nan nan nan nan nan nan nan nan nan nan nan nan nan nan nan nan nan nan nan nan nan nan nan nan nan nan nan nan nan nan nan nan 0 nan nan nan nan nan nan nan nan nan nan nan nan nan nan nan nan nan nan nan nan nan nan nan nan nan 3 3 9 12 12 14 14 18 18 17
nan nan nan nan nan nan nan nan nan nan nan nan nan nan nan nan nan nan nan nan nan nan nan nan nan nan nan nan nan nan nan nan nan nan nan nan nan nan nan nan nan nan nan nan nan nan nan nan nan nan nan nan nan nan nan nan nan nan nan nan nan nan nan nan nan nan nan nan nan nan nan nan nan nan nan 0 2 2 7 11 11 8 10 9 9 11
nan nan nan nan nan nan nan nan nan nan nan nan nan nan nan nan nan nan nan nan nan nan nan nan nan nan nan nan nan nan nan nan nan nan nan nan nan nan nan nan nan nan nan nan nan nan nan nan nan nan nan nan nan nan nan nan nan nan nan nan nan nan nan nan nan nan nan nan nan nan nan nan nan nan nan nan nan nan nan nan nan nan 1 2 2 5
nan nan nan nan nan nan nan nan nan nan nan nan nan nan nan nan nan nan nan nan nan nan nan nan nan nan nan nan nan nan nan nan nan nan nan nan nan nan nan nan nan nan nan nan nan nan nan nan nan nan nan nan nan nan nan nan nan nan nan nan nan nan nan nan nan nan nan nan nan nan nan nan nan nan nan nan nan nan nan nan nan nan nan nan nan nan
nan nan nan nan nan nan nan nan nan nan nan nan nan nan nan nan nan nan nan nan nan nan nan nan nan nan nan nan nan nan nan nan nan nan nan nan nan nan nan nan nan nan nan nan nan nan nan nan nan nan nan nan nan nan nan nan nan nan 0 nan nan nan nan nan nan nan nan nan nan nan nan nan nan nan nan nan nan nan nan nan nan nan nan nan nan nan
nan nan nan nan nan nan nan nan nan nan nan nan nan nan nan nan nan nan nan nan nan nan nan nan nan nan nan nan nan nan nan nan nan nan nan nan nan nan nan nan nan nan nan nan nan nan 0 0 0 nan 0 nan 0 0 0 nan nan 2 4 nan nan nan nan nan nan nan nan nan nan nan nan nan nan nan nan nan nan nan nan nan nan nan nan nan nan nan
nan nan nan nan nan nan nan nan nan nan 0 nan nan nan nan nan nan nan nan nan nan nan nan nan nan nan nan nan nan nan nan nan nan nan nan nan nan nan nan nan nan nan nan nan nan nan 1 2 2 1 0 0 nan nan nan nan nan 1 2 nan nan nan 0 nan nan nan nan nan nan nan nan nan nan nan nan nan nan nan nan nan nan nan nan nan nan nan
nan nan nan nan nan nan nan nan nan nan nan nan nan nan nan nan nan nan nan nan nan nan nan nan nan nan nan nan nan nan nan nan nan nan nan nan nan nan nan nan nan nan nan nan nan nan 0 3 3 1 1 1 nan nan nan nan nan nan 0 0 0 0 nan nan nan nan nan nan nan nan nan nan nan nan nan nan nan nan nan nan nan nan nan nan nan nan
nan nan nan nan nan nan nan nan nan nan nan nan nan nan nan nan nan nan nan nan nan nan nan nan nan nan nan nan nan nan nan nan nan nan nan nan nan nan nan nan nan nan nan nan nan nan nan 1 1 0 0 nan nan nan nan nan nan nan nan 0 0 0 nan nan nan nan nan nan nan nan nan nan nan nan nan nan nan nan nan nan nan nan nan nan nan nan
nan nan nan nan nan nan 0 1 1 1 nan nan nan nan nan nan nan nan nan nan nan nan nan nan nan nan nan nan nan nan nan nan nan nan nan nan 8 8 nan nan nan nan nan nan nan nan nan nan nan nan nan nan nan nan nan nan nan nan 0 1 1 1 nan nan nan nan nan nan nan nan nan nan nan nan nan nan nan nan nan nan nan nan nan nan nan nan
nan nan nan nan nan nan 1 2 0 0 nan 0 0 0 nan nan nan nan nan nan nan nan nan nan nan nan 0 0 nan nan nan nan nan nan nan nan nan nan nan nan nan nan nan nan nan nan nan nan nan nan nan nan nan nan nan nan nan nan nan 0 0 0 nan nan nan nan nan nan nan nan nan nan nan nan nan nan nan nan nan nan nan nan nan nan nan nan
nan nan nan nan nan 0 1 1 0 0 0 0 0 0 0 nan nan nan nan nan nan nan nan 0 0 0 0 0 nan nan nan nan nan nan nan nan nan nan nan nan nan nan nan nan nan nan nan nan nan nan nan nan nan nan nan nan nan nan nan nan nan nan nan nan nan nan nan nan nan nan nan nan nan nan nan nan nan nan nan nan nan nan nan nan nan nan
nan nan nan nan nan 1 1 1 nan nan nan nan nan nan 0 nan nan nan nan nan nan 1 3 0 0 nan nan nan nan nan nan nan nan nan nan nan nan nan nan nan nan nan nan nan nan nan nan nan nan nan nan nan nan nan nan nan nan nan nan nan nan nan nan nan nan nan nan nan nan nan nan nan nan nan nan nan nan nan nan nan nan nan nan nan nan nan
nan nan nan 2 2 nan 0 0 0 0 nan nan nan nan nan 1 9 9 1 nan nan nan nan nan nan nan nan nan nan nan nan nan nan nan nan nan nan nan nan nan nan nan nan nan nan nan nan nan nan nan nan nan nan nan nan nan nan nan nan nan nan nan nan nan nan nan nan nan nan nan nan nan nan nan nan nan nan nan nan nan nan nan nan nan nan nan
nan nan 1 nan nan nan nan nan 0 0 nan 0 nan nan nan nan nan nan nan nan nan nan nan nan nan nan nan nan nan nan nan nan nan nan nan nan nan nan nan nan nan nan nan nan nan nan nan nan nan nan 1 nan nan nan nan nan nan nan nan nan nan nan nan nan nan nan nan nan nan nan nan nan nan nan nan nan nan nan nan nan nan nan nan nan nan nan
nan nan nan nan nan nan nan nan 0 0 1 0 0 0 nan nan nan nan nan nan nan nan nan nan nan nan nan nan nan nan nan nan nan nan nan nan nan nan nan nan nan nan nan nan nan nan nan nan nan nan 0 11 nan nan nan nan nan nan nan nan nan nan nan nan nan nan nan nan nan nan nan nan nan nan nan nan nan nan nan nan nan nan nan nan nan nan
CIN
-0 nan nan nan nan nan nan nan nan nan nan nan nan nan nan -0 -0 -0 -0 -0 -0 -2 -3 nan nan nan -1 -0 -0 -0 -0 -0 -0 -0 -0 -0 -0 -0 -0 -0 -0 -0 -0 -0 -0 -0 -0 -0 -0 -0 -0 -0 -0 -0 -0 -0 -0 -0 -0 -0 -0 -0 -0 -0 -0 -0 -0 -0 -0 -0 -0 -0 -0 -0 -0 -0 -0 -0 -0 -0 -0 -0 -0 -0 -0 -0
-0 -0 nan nan nan nan nan nan nan nan nan nan nan nan nan nan -0 -0 -0 -1 -1 -2 -1 nan nan nan nan -0 -0 -0 -0 -0 -0 -0 -0 -0 -0 -0 -0 -0 -0 -0 -0 -0 -0 -0 -0 -0 -0 -0 -0 -0 -0 -0 -0 -0 -0 -0 -0 -0 -0 -0 -0 -0 -0 -0 -0 -0 -0 -0 -0 -0 -0 -0 -0 -0 -0 -0 -0 -0 -0 -0 -0 -0 -0 -0
-0 -0 nan nan nan nan nan nan nan nan nan nan nan nan nan nan -0 -0 -0 -0 -0 -2 nan nan nan nan nan -1 -0 -0 -0 -0 -0 -0 -0 -0 -0 -0 -0 -0 -0 -0 -0 -0 -0 -0 -0 -0 -0 -0 -0 -0 -0 -0 -0 -0 -0 -0 -0 -0 -0 -0 -0 -0 -0 -0 -0 -0 -0 -0 -0 -0 -0 -0 -0 -0 -0 -0 -0 -0 -0 -0 -0 -0 -0 -0
nan -0 -0 nan nan nan nan -0 nan nan nan -0 -0 -0 nan nan -0 -0 -0 nan nan nan nan nan nan nan nan nan -0 -0 -0 -0 -0 -0 -0 -0 -0 -0 -0 -0 -0 -0 -0 -0 -0 -0 -0 -0 -0 -0 -0 -0 -0 -0 -0 -0 -0 -0 -0 -0 -0 -0 -0 -0 -0 -0 -0 -0 -0 -0 -0 -0 -0 -0 -0 -0 -0 -0 -0 -0 -0 -0 -0 -0 -0 -0
nan -0 -0 -0 -0 -0 nan -0 -0 -0 -0 -0 -0 -0 nan -0 -0 -0 -0 nan nan nan nan nan nan nan nan nan nan nan -0 -0 -0 -0 -0 -0 -0 -0 -0 -0 -0 -0 -0 -0 -0 -0 -0 -0 -0 -0 -0 -0 -0 -0 -0 -0 -0 -0 -0 -0 -0 -0 -0 -0 -0 -0 -0 -0 -0 -0 -0 -0 -0 -0 -0 -0 -0 -0 -0 -0 -0 -0 -0 -0 -0 -0
nan -0 -0 -0 -0 -0 -0 -0 -0 -0 -0 -0 nan nan nan nan -0 -0 nan nan nan nan nan nan nan nan nan nan nan nan nan -0 -0 -0 -0 -0 -0 -0 -0 -0 -0 -0 nan nan nan -0 -0 -0 -0 -0 -0 -0 -0 -0 -0 -0 -0 -0 -0 -0 -0 -0 -0 -0 -0 -0 -0 -0 -0 -0 -0 -0 -0 -0 -0 -0 -0 -0 -0 -0 -0 -0 -0 -0 -0 -0
-0 -0 -0 -0 -0 -0 -0 -0 -0 -0 -0 -0 nan nan nan nan nan nan nan nan nan nan nan nan nan nan nan nan nan nan nan nan -0 -0 -0 -0 -0 -0 nan nan nan nan nan nan nan -0 -0 -0 -0 -0 -0 -0 -0 -0 -0 -0 -0 -0 -0 -0 -0 -0 -0 -0 -0 -0 -0 -0 -0 -0 -0 -0 -0 -0 -0 -0 -0 -0 -0 -0 -0 -0 -0 -0 -0 -0
nan -0 -0 -0 -0 -0 -0 -0 -0 -0 nan nan nan nan nan nan nan nan nan nan nan nan nan nan nan nan nan nan nan nan nan nan nan nan nan nan nan nan nan nan nan nan nan -0 -0 -0 -0 -0 -0 -0 -0 -0 -0 -0 -0 -0 -0 -0 -0 -0 -0 -0 -0 -0 -0 -0 -0 -0 -0 -0 -0 -0 -0 -0 -0 -0 -0 -0 -0 -0 -0 -0 -0 -0 -0 -0
nan -0 -0 nan nan nan nan -0 nan nan nan nan nan nan nan nan nan nan nan nan nan nan nan nan nan nan nan nan nan nan nan nan nan nan nan nan nan nan nan nan nan nan nan -0 -0 -0 -0 -0 -0 -0 -0 -0 -0 -0 -0 -0 -0 -0 -0 -0 -0 -0 -0 -0 -0 -0 -0 -0 -0 -0 -0 -0 -0 -0 -0 -0 -0 -0 -0 -0 -0 -0 -0 -0 -0 -0
nan nan nan nan nan nan nan nan nan nan nan nan nan nan nan nan nan nan nan nan nan nan nan nan nan nan nan nan nan nan nan nan nan nan nan nan nan nan nan nan nan nan nan nan nan -0 -0 -0 -0 -0 -0 -0 -0 -0 -0 -0 -0 -0 -0 -0 -0 -0 -0 -0 -0 -0 -0 -0 -0 -0 -0 -0 -0 -0 -0 -0 -0 -0 -0 -0 -0 -0 -0 -0 -0 -0
nan nan nan nan nan nan nan nan nan nan nan nan nan nan nan nan nan nan nan nan nan nan nan nan nan nan nan nan nan nan nan nan nan nan nan nan nan nan nan nan nan nan nan nan nan nan nan nan nan nan -0 -0 nan nan nan nan nan nan nan nan nan nan -0 -0 -0 -0 -0 -0 -0 -0 -0 -0 -0 -0 -0 -0 -0 -0 -0 -0 -0 -0 -0 -0 -0 -0
nan nan nan nan nan nan nan nan nan nan nan nan nan nan nan nan nan nan nan nan nan nan nan nan nan nan nan nan nan nan nan nan nan nan nan nan nan nan nan nan nan nan nan nan nan nan nan nan nan nan nan nan nan nan nan nan nan nan nan nan nan nan nan -0 -0 -0 -0 -0 -0 -0 -0 -0 -0 -0 -0 -0 -0 -0 -0 -0 -0 -0 -0 -0 -0 -0
nan nan nan nan nan nan nan nan nan nan nan nan nan nan nan nan nan nan nan nan nan nan nan nan nan nan nan nan nan nan nan nan nan nan nan nan nan nan nan nan nan nan nan nan nan nan nan nan nan nan nan nan nan nan nan nan nan nan nan nan nan nan -0 -0 -0 -0 -0 -0 -0 -0 -0 -0 -0 -0 -0 -0 -0 -0 -0 -0 -0 -0 -0 -0 -0 -0
nan nan nan nan nan nan nan nan nan nan nan nan nan nan nan nan nan nan nan nan nan nan nan nan nan nan nan nan nan nan nan nan nan nan nan nan nan nan nan nan nan nan nan nan nan nan nan nan nan nan nan nan nan nan nan nan nan nan nan nan nan nan -0 -0 -0 -0 -0 -0 -0 -0 -0 -0 -0 -0 -0 -0 -0 -0 -0 -0 -0 -0 -0 -0 -0 -0
nan nan nan nan nan nan nan nan nan nan nan nan nan nan nan nan nan nan nan nan nan nan nan nan nan nan nan nan nan nan nan nan nan nan nan nan nan nan nan nan nan nan nan nan nan nan nan nan nan nan nan nan nan nan nan nan nan nan nan -0 -0 -0 -0 -0 -0 -0 -0 -0 -0 -0 -0 -0 -0 -0 -0 -0 -0 -0 -0 -0 -0 -0 -0 -0 -0 -0
nan nan nan nan nan nan nan nan nan nan nan nan nan nan nan nan nan nan nan nan nan nan nan nan nan nan nan nan nan nan nan nan nan nan nan nan nan nan nan nan nan nan nan nan nan nan nan nan nan nan nan nan nan nan nan nan nan nan -0 -0 -0 -0 -0 -0 -0 -0 -0 -0 -0 -0 -0 -0 -0 -0 -0 -0 -0 -0 -0 -0 -0 -0 -0 -0 -0 -0
nan nan nan nan nan nan nan nan nan nan nan nan nan nan nan nan nan nan nan nan nan nan nan nan nan nan nan nan nan nan nan nan nan nan nan nan nan nan nan nan nan nan nan nan nan nan nan nan nan nan nan nan nan nan nan nan nan nan nan -0 -0 -0 -0 -0 -0 -0 -0 -0 -0 -0 -0 -0 -0 -0 -0 -0 -0 -0 -0 -0 -0 -0 -0 -0 -0 -0
nan nan nan nan nan nan nan nan nan nan nan nan nan nan nan nan nan nan nan nan nan nan nan nan nan nan nan nan nan nan nan nan nan nan nan nan nan nan nan nan nan nan nan nan nan nan nan nan nan nan nan nan nan nan nan nan nan nan nan -0 -0 -0 -0 -0 -0 -0 -0 -0 -0 -0 -0 -0 -0 -0 -0 -0 -0 -0 -0 -0 -0 -0 -0 -0 -0 -0
nan nan nan nan nan nan nan nan nan nan nan nan nan nan nan nan nan nan nan nan nan nan nan nan nan nan nan nan nan nan nan nan nan nan nan nan nan nan nan nan nan nan nan nan nan nan nan nan nan nan nan nan nan nan nan nan nan nan nan nan nan -0 -0 -0 -0 -0 -0 -0 -0 -0 -0 -0 -0 -0 -0 -0 -0 -0 -0 -0 -0 -0 -0 -0 -0 -0
nan nan nan nan nan nan nan nan nan nan nan nan nan nan nan nan nan nan nan nan nan nan nan nan nan nan nan nan nan nan nan nan nan nan nan nan nan nan nan nan nan nan nan nan nan nan nan nan nan nan nan nan nan nan nan nan nan nan nan -0 -0 -0 -0 -0 -0 -0 -0 -0 -0 -0 -0 -0 -0 -0 -0 -0 -0 -0 -0 -0 -0 -0 -0 -0 -0 -0
nan nan nan nan nan nan nan nan nan nan nan nan nan nan nan nan nan nan nan nan nan nan nan nan nan nan nan nan nan nan nan nan nan nan nan nan nan nan nan nan nan nan nan nan nan nan nan nan nan nan nan nan nan nan nan nan nan nan nan -0 -0 -0 -0 -0 -0 -0 -0 -0 -0 -0 -0 -0 -0 -0 -0 -0 -0 -0 -0 -0 -0 -0 -0 -0 -0 -0
nan nan nan nan nan nan nan nan nan nan nan nan nan nan nan nan nan nan nan nan nan nan nan nan nan nan nan nan nan nan nan nan nan nan nan nan nan nan nan nan nan nan nan nan nan nan nan nan nan nan nan nan nan nan nan nan nan nan nan -0 -0 -0 -0 -0 -0 -0 -0 -0 -0 -0 -0 -0 -0 -0 -0 -0 -0 -0 -0 -0 -0 -0 -0 -0 -0 -0
nan nan nan nan nan nan nan nan nan nan nan nan nan nan nan nan nan nan nan nan nan nan nan nan nan nan nan nan nan nan nan nan nan nan nan nan nan nan nan nan nan nan nan nan nan nan nan nan nan nan nan nan nan nan nan nan nan nan nan nan nan -0 -0 -0 -0 -0 -0 -0 -0 -0 -0 -0 -0 -0 -0 -0 -0 -0 -0 -0 -0 -0 -0 -0 -0 -0
nan nan nan nan nan nan nan nan nan nan nan nan nan nan nan nan nan nan nan nan nan nan nan nan nan nan nan nan nan nan nan nan nan nan nan nan nan nan nan nan nan nan nan nan nan nan nan nan nan nan nan nan nan nan nan nan nan nan nan nan nan -0 -0 -0 -0 -0 -0 -0 -0 -0 -0 -0 -0 -0 -0 -0 -0 -0 -0 -0 -0 -0 -0 -0 -0 -0
nan nan nan nan nan nan nan nan nan nan nan nan nan nan nan nan nan nan nan nan nan nan nan nan nan nan nan nan nan nan nan nan nan nan nan nan nan nan nan nan nan nan nan nan nan nan nan nan nan nan nan nan nan nan nan nan nan nan nan nan nan -0 -0 -0 -0 -0 -0 -0 -0 -0 -0 -0 -0 -0 -0 -0 -0 -0 -0 -0 -0 -0 -0 -0 -0 -0
nan nan nan nan nan nan nan -0 -1 -1 nan nan nan nan nan nan nan nan nan nan nan nan nan nan nan nan nan nan nan nan nan nan nan nan nan nan nan nan nan nan nan nan nan nan nan nan nan nan nan nan nan nan nan nan nan nan nan nan nan nan nan nan -0 -0 -0 -0 -0 -0 -0 -0 -0 -0 -0 -0 -0 -0 -0 -0 -0 -0 -0 -0 -0 -0 -0 -0
-9 -17 -0 -0 -0 -0 -0 -0 -0 -0 -0 -14 nan nan nan nan nan nan nan nan nan nan nan -5 -5 -5 nan nan nan nan nan nan nan nan nan nan nan nan nan nan nan nan nan nan nan nan nan nan nan nan nan nan nan nan nan nan nan nan nan nan nan nan nan nan nan nan -0 -0 -0 -0 -0 -0 -0 -0 -0 -0 -0 -0 -0 -0 -0 -0 -0 -0 -0 -0
-1 -0 -1 -0 -0 -1 nan nan nan nan nan -0 -0 -0 nan nan nan nan nan nan nan nan nan nan nan -3 nan nan nan nan nan nan nan nan nan nan nan nan nan nan nan nan nan nan nan nan nan nan nan nan nan nan nan nan nan nan nan nan nan nan nan nan nan nan nan nan -0 -0 -0 -0 -0 -0 -0 -0 -0 -0 -0 -0 -0 -0 -0 -0 -0 -0 -0 nan
nan nan nan nan nan nan nan nan nan nan nan nan -0 -0 nan nan nan nan nan nan nan nan nan -7 -7 -3 -4 nan nan nan nan nan nan nan nan nan nan nan nan nan nan nan nan nan nan nan nan nan nan nan nan nan nan nan nan nan nan nan nan nan nan nan nan nan nan nan nan -0 -0 -0 -0 -0 -0 -0 -0 -0 -0 -0 -0 -0 -0 -0 -0 -1 -1 nan
nan nan nan nan nan nan nan nan nan nan nan -0 -0 -0 nan nan nan nan nan nan nan nan nan nan nan -5 -7 nan nan nan nan nan nan nan nan nan nan nan nan nan nan nan nan nan nan nan nan nan nan nan nan nan nan nan nan nan nan nan nan nan nan nan nan nan nan nan nan -0 -0 -0 -0 -0 -0 -0 -0 -0 -0 -0 -0 -0 -0 -0 -1 nan nan nan
nan nan nan nan nan nan nan nan nan nan nan nan nan nan nan nan nan nan nan nan nan nan nan nan nan nan -7 -5 nan nan nan nan nan nan nan nan nan nan nan nan nan nan nan nan nan nan nan nan nan nan nan nan nan nan nan nan nan nan nan nan nan nan nan nan nan nan nan -0 -0 -0 -0 -0 -0 -0 -0 -0 -0 -0 -0 -0 -0 -0 -7 nan nan nan
nan nan nan nan nan nan nan nan nan nan nan nan nan nan nan nan nan nan nan nan nan nan nan nan nan nan nan nan nan nan nan nan nan nan nan nan nan nan nan nan nan nan nan nan nan nan nan nan nan nan nan nan nan nan nan nan nan nan nan nan nan nan nan nan nan nan nan -0 -0 -0 -0 -0 -0 -0 -0 -0 -0 -0 -0 -0 -0 -0 -4 nan nan nan
nan nan nan nan nan nan nan nan nan nan nan nan nan nan nan nan nan nan nan nan nan nan nan nan nan nan nan nan nan nan nan nan nan nan nan nan nan nan nan nan nan nan nan nan nan nan nan nan nan nan nan nan nan nan nan nan nan nan nan nan nan nan nan nan nan nan nan nan nan nan -0 -0 -0 -0 -0 -0 -0 -0 -0 -0 -0 -0 -0 -15 -15 -13
nan nan nan nan nan nan nan nan nan nan nan nan nan nan nan nan nan nan nan nan nan nan nan nan nan nan nan nan nan nan nan nan nan nan -19 nan nan nan nan nan nan nan nan nan nan nan nan nan nan nan nan nan nan nan nan nan nan nan nan nan nan nan nan nan nan nan nan nan nan nan nan nan nan nan nan nan -0 -0 -0 -0 -0 -0 -0 -1 -1 -8
nan nan nan nan nan nan nan nan nan nan nan nan nan nan nan nan nan nan nan nan nan nan nan nan nan nan nan nan nan nan nan nan nan nan nan nan nan nan nan nan nan nan nan nan nan nan nan nan nan nan nan nan nan nan nan nan nan nan nan nan nan nan nan nan nan nan nan nan nan nan nan nan nan nan nan nan -0 -0 -0 -0 -0 -0 -0 -0 -0 -0
nan nan nan nan nan nan nan nan nan nan nan nan nan nan nan nan nan nan nan nan nan nan nan nan nan nan nan nan nan nan nan nan nan nan nan nan nan nan nan nan nan nan nan nan nan nan nan nan nan nan -0 nan nan nan nan nan nan nan nan nan nan nan nan nan nan nan nan nan nan nan nan nan nan nan nan nan -0 -0 -0 -0 -0 -0 -0 -0 -0 -0
nan nan nan nan nan nan nan nan nan nan nan nan nan nan nan nan nan nan nan nan nan nan nan nan nan nan nan nan nan nan nan nan nan nan nan nan nan nan nan nan nan nan nan nan nan nan nan nan nan nan nan nan nan nan nan nan nan nan nan nan nan nan nan nan nan nan nan nan nan nan nan nan nan nan nan -1 -1 -1 -0 -0 -0 -0 -0 -0 -0 -0
nan nan nan nan nan nan nan nan nan nan nan nan nan nan nan nan nan nan nan nan nan nan nan nan nan nan nan nan nan nan nan nan nan nan nan nan nan nan nan nan nan nan nan nan nan nan nan nan nan nan nan nan nan nan nan nan nan nan nan nan nan nan nan nan nan nan nan nan nan nan nan nan nan nan nan nan nan nan nan nan nan nan -0 -0 -0 -0
nan nan nan nan nan nan nan nan nan nan nan nan nan nan nan nan nan nan nan nan nan nan nan nan nan nan nan nan nan nan nan nan nan nan nan nan nan nan nan nan nan nan nan nan nan nan nan nan nan nan nan nan nan nan nan nan nan nan nan nan nan nan nan nan nan nan nan nan nan nan nan nan nan nan nan nan nan nan nan nan nan nan nan nan nan nan
nan nan nan nan nan nan nan nan nan nan nan nan nan nan nan nan nan nan nan nan nan nan nan nan nan nan nan nan nan nan nan nan nan nan nan nan nan nan nan nan nan nan nan nan nan nan nan nan nan nan nan nan nan nan nan nan nan nan -0 nan nan nan nan nan nan nan nan nan nan nan nan nan nan nan nan nan nan nan nan nan nan nan nan nan nan nan
nan nan nan nan nan nan nan nan nan nan nan nan nan nan nan nan nan nan nan nan nan nan nan nan nan nan nan nan nan nan nan nan nan nan nan nan nan nan nan nan nan nan nan nan nan nan -7 -6 -6 nan -5 nan -2 -2 -2 nan nan -0 -0 nan nan nan nan nan nan nan nan nan nan nan nan nan nan nan nan nan nan nan nan nan nan nan nan nan nan nan
nan nan nan nan nan nan nan nan nan nan -14 nan nan nan nan nan nan nan nan nan nan nan nan nan nan nan nan nan nan nan nan nan nan nan nan nan nan nan nan nan nan nan nan nan nan nan -5 -3 -3 -3 -5 -6 nan nan nan nan nan -0 -0 nan nan nan -4 nan nan nan nan nan nan nan nan nan nan nan nan nan nan nan nan nan nan nan nan nan nan nan
nan nan nan nan nan nan nan nan nan nan nan nan nan nan nan nan nan nan nan nan nan nan nan nan nan nan nan nan nan nan nan nan nan nan nan nan nan nan nan nan nan nan nan nan nan nan -7 -2 -2 -4 -6 -6 nan nan nan nan nan nan -3 -3 -3 -3 nan nan nan nan nan nan nan nan nan nan nan nan nan nan nan nan nan nan nan nan nan nan nan nan
nan nan nan nan nan nan nan nan nan nan nan nan nan nan nan nan nan nan nan nan nan nan nan nan nan nan nan nan nan nan nan nan nan nan nan nan nan nan nan nan nan nan nan nan nan nan nan -3 -3 -6 -8 nan nan nan nan nan nan nan nan -5 -5 -4 nan nan nan nan nan nan nan nan nan nan nan nan nan nan nan nan nan nan nan nan nan nan nan nan
nan nan nan nan nan nan -10 -9 -11 -11 nan nan nan nan nan nan nan nan nan nan nan nan nan nan nan nan nan nan nan nan nan nan nan nan nan nan -6 -6 nan nan nan nan nan nan nan nan nan nan nan nan nan nan nan nan nan nan nan nan -1 -1 -1 -3 nan nan nan nan nan nan nan nan nan nan nan nan nan nan nan nan nan nan nan nan nan nan nan nan
nan nan nan nan nan nan -7 -7 -16 -16 nan -17 -13 -13 nan nan nan nan nan nan nan nan nan nan nan nan -3 -3 nan nan nan nan nan nan nan nan nan nan nan nan nan nan nan nan nan nan nan nan nan nan nan nan nan nan nan nan nan nan nan -1 -1 -4 nan nan nan nan nan nan nan nan nan nan nan nan nan nan nan nan nan nan nan nan nan nan nan nan
nan nan nan nan nan -12 -11 -9 -15 -15 -18 -14 -11 -11 -14 nan nan nan nan nan nan nan nan -10 -10 -5 -4 -5 nan nan nan nan nan nan nan nan nan nan nan nan nan nan nan nan nan nan nan nan nan nan nan nan nan nan nan nan nan nan nan nan nan nan nan nan nan nan nan nan nan nan nan nan nan nan nan nan nan nan nan nan nan nan nan nan nan nan
nan nan nan nan nan -12 -12 -12 nan nan nan nan nan nan -15 nan nan nan nan nan nan -6 -1 -5 -5 nan nan nan nan nan nan nan nan nan nan nan nan nan nan nan nan nan nan nan nan nan nan nan nan nan nan nan nan nan nan nan nan nan nan nan nan nan nan nan nan nan nan nan nan nan nan nan nan nan nan nan nan nan nan nan nan nan nan nan nan nan
nan nan nan -7 -7 nan -18 -19 -18 -18 nan nan nan nan nan -9 -0 -0 -7 nan nan nan nan nan nan nan nan nan nan nan nan nan nan nan nan nan nan nan nan nan nan nan nan nan nan nan nan nan nan nan nan nan nan nan nan nan nan nan nan nan nan nan nan nan nan nan nan nan nan nan nan nan nan nan nan nan nan nan nan nan nan nan nan nan nan nan
nan nan -6 nan nan nan nan nan -13 -13 nan -6 nan nan nan nan nan nan nan nan nan nan nan nan nan nan nan nan nan nan nan nan nan nan nan nan nan nan nan nan nan nan nan nan nan nan nan nan nan nan -7 nan nan nan nan nan nan nan nan nan nan nan nan nan nan nan nan nan nan nan nan nan nan nan nan nan nan nan nan nan nan nan nan nan nan nan
nan nan nan nan nan nan nan nan -5 -5 -4 -5 -4 -4 nan nan nan nan nan nan nan nan nan nan nan nan nan nan nan nan nan nan nan nan nan nan nan nan nan nan nan nan nan nan nan nan nan nan nan nan -16 -0 nan nan nan nan nan nan nan nan nan nan nan nan nan nan nan nan nan nan nan nan nan nan nan nan nan nan nan nan nan nan nan nan nan nan
Wind_Speed
1 1 1 2 2 2 1 1 2 2 2 1 1 1 2 3 4 4 4 4 3 2 2 2 2 2 2 4 5 5 6 7 7 7 8 8 9 9 10 10 10 10 10 10 10 10 10 10 10 10 10 10 10 10 10 10 10 10 11 11 11 11 11 11 11 11 11 11 11 11 11 11 11 11 11 11 11 12 12 12 12 12 12 12 12 13
1 1 1 1 1 1 1 1 1 1 2 1 1 1 1 2 2 2 2 3 3 3 2 2 2 2 2 3 5 6 6 7 7 8 8 8 9 9 9 9 9 9 9 9 9 9 10 10 10 10 10 10 10 10 10 10 10 10 10 10 10 10 10 11 11 11 11 11 11 11 11 11 11 11 11 12 12 12 12 12 12 12 12 12 12 13
1 1 2 2 2 1 1 1 1 1 2 2 1 1 1 1 1 1 1 2 2 2 2 2 2 2 2 3 5 6 7 7 8 8 8 9 9 9 9 9 9 8 8 9 9 10 10 10 10 10 10 10 10 10 10 10 10 10 10 10 10 10 10 10 10 10 11 11 11 11 11 11 11 11 11 12 12 12 12 12 12 12 12 12 12 12
1 1 1 2 2 2 2 1 1 1 1 2 2 2 2 1 1 1 1 1 1 1 1 2 2 2 2 3 4 6 7 7 8 8 9 9 9 9 8 8 8 8 8 9 10 10 10 10 10 10 10 10 10 10 10 10 9 9 9 9 9 9 10 10 10 10 10 11 11 11 11 11 11 11 12 12 12 12 12 12 12 12 12 12 12 12
1 1 1 1 1 2 2 2 2 2 2 2 2 2 2 1 1 1 1 1 1 1 2 2 2 2 2 2 4 6 7 8 8 8 9 9 8 8 7 7 7 8 9 9 10 10 11 11 11 11 11 10 10 10 10 10 9 9 9 9 9 9 9 10 10 10 11 11 11 11 11 11 11 12 12 12 12 12 12 12 12 12 12 12 12 12
1 1 1 1 1 1 1 1 1 2 2 2 1 1 1 1 1 1 1 1 1 2 2 2 2 2 2 2 4 6 7 8 8 8 8 7 7 6 6 7 8 8 9 10 10 11 11 11 11 11 10 10 10 10 10 9 9 9 9 9 9 9 10 10 11 11 11 11 12 12 12 12 12 12 12 12 12 12 12 12 12 12 12 12 13 13
1 2 2 1 1 1 1 1 1 1 1 1 1 1 1 1 1 1 1 1 1 1 1 1 1 1 1 1 3 5 6 7 7 7 6 6 5 5 6 7 8 9 9 10 10 10 10 10 10 10 10 10 10 9 9 9 9 9 9 9 10 10 10 11 11 11 12 12 12 12 12 12 12 12 12 12 12 12 12 12 12 12 13 13 13 13
1 1 1 1 1 1 1 1 1 1 1 1 1 1 1 1 1 1 1 1 1 1 1 1 1 1 0 1 2 3 3 4 4 4 4 4 4 5 6 7 8 9 9 10 10 10 10 10 10 10 10 10 10 10 9 9 9 9 9 10 10 10 11 11 11 12 12 12 12 12 12 12 12 12 12 12 12 12 12 12 12 13 13 13 13 13
2 1 1 1 1 1 1 1 1 1 1 1 1 1 1 1 1 0 0 0 0 0 0 1 1 1 1 1 2 2 2 2 2 2 1 1 2 4 5 7 8 8 9 9 9 9 10 10 10 10 10 10 10 10 10 10 10 10 10 10 10 11 11 11 12 12 12 12 12 12 12 12 12 12 12 12 12 12 12 12 12 13 13 13 13 13
2 1 1 1 1 1 1 1 1 1 1 1 1 1 1 1 0 0 1 1 1 1 1 1 1 1 2 2 2 2 2 2 2 2 2 3 4 4 5 6 6 7 8 9 9 9 10 10 10 11 11 11 11 11 11 10 10 10 10 10 11 11 11 11 12 12 12 12 12 12 12 12 12 12 12 12 12 12 12 12 12 12 13 13 13 14
1 1 1 1 1 1 1 1 0 1 1 1 1 1 1 1 1 0 1 2 2 2 2 1 1 1 1 2 2 2 1 2 2 3 5 5 6 6 6 6 6 7 8 8 9 9 10 10 11 11 11 11 10 10 10 10 10 10 10 10 11 11 11 11 12 12 12 12 12 12 12 12 12 12 12 12 12 12 12 12 12 13 13 13 14 14
1 1 1 1 1 1 1 1 1 1 1 1 1 1 1 1 1 1 1 1 2 2 2 2 1 1 1 1 2 2 2 2 2 3 4 4 4 5 4 4 5 5 6 7 8 9 10 10 10 10 10 10 10 10 10 9 10 10 10 10 11 11 11 11 11 11 12 12 12 12 12 12 12 12 13 13 13 13 13 12 13 13 13 14 14 15
1 1 1 1 1 1 1 1 1 1 1 1 0 1 1 1 1 1 1 1 1 1 1 2 2 2 1 1 1 1 1 2 2 2 2 3 2 2 2 2 2 3 3 4 4 6 8 9 9 9 9 9 10 10 10 10 10 10 10 10 10 11 11 11 11 11 11 11 12 12 12 12 12 13 13 13 13 13 13 13 13 13 13 14 14 15
2 2 2 2 1 1 1 1 1 1 1 0 0 1 1 1 1 1 1 0 1 1 1 1 2 3 2 1 0 1 1 1 2 2 2 2 1 1 1 1 1 2 1 2 3 4 6 7 6 7 9 9 9 10 10 10 10 10 10 10 10 10 10 11 11 11 11 11 12 12 12 12 12 13 13 13 13 13 13 13 13 13 14 14 14 15
1 1 1 1 1 2 1 1 1 1 1 1 1 1 1 1 1 1 1 1 1 2 2 2 2 3 3 2 1 1 2 2 2 2 2 2 1 1 1 0 1 2 1 2 3 4 6 5 4 4 6 7 8 8 9 9 10 10 10 10 10 10 10 10 11 11 11 11 12 12 12 12 12 13 13 13 13 13 13 13 13 14 14 14 15 15
0 1 1 1 1 1 1 1 1 1 1 1 1 1 1 1 1 1 1 1 1 2 2 2 2 3 3 2 1 1 2 2 1 1 1 2 2 1 1 0 1 2 2 2 2 3 4 3 3 4 5 7 9 10 11 10 9 10 10 10 10 10 10 11 11 11 11 12 12 12 12 12 12 12 13 13 13 13 13 14 14 14 14 15 15 15
1 1 1 0 1 2 2 1 1 1 1 1 1 1 1 1 1 1 1 1 1 1 2 2 1 1 3 2 2 1 2 2 1 1 1 2 2 1 2 1 1 2 2 2 3 3 3 3 4 4 4 7 9 10 10 10 10 10 10 10 10 11 11 11 11 12 12 12 12 12 12 12 12 12 12 12 13 13 13 14 14 14 14 15 15 15
1 1 1 0 0 1 2 1 1 1 1 1 1 1 1 1 1 1 1 1 1 1 1 1 1 1 1 2 2 1 1 2 1 1 1 2 3 2 1 1 2 2 2 3 3 3 3 3 3 4 5 8 10 11 11 11 11 11 11 11 11 11 11 12 12 12 12 12 12 12 12 12 12 12 12 12 13 13 13 14 14 14 14 15 15 15
0 0 1 1 1 1 1 1 1 1 0 0 0 1 1 1 1 1 1 1 1 2 1 1 0 1 1 2 3 2 1 1 1 1 2 3 3 2 0 1 2 2 2 3 3 3 3 3 5 6 8 10 11 11 12 12 12 12 12 12 12 12 12 12 12 12 12 12 11 11 12 12 12 12 12 12 13 13 14 14 14 15 15 15 15 15
1 1 1 1 1 1 1 1 1 1 2 1 1 1 1 1 1 1 1 1 1 1 2 1 1 1 2 2 3 2 0 2 1 1 2 3 3 2 1 1 1 2 2 3 3 3 3 3 4 5 8 9 11 12 13 13 13 13 13 13 12 12 12 12 12 12 11 11 11 11 11 12 12 12 12 13 13 14 14 14 15 15 15 15 16 16
1 1 2 2 2 1 0 1 2 2 3 2 2 2 1 1 1 1 1 0 0 1 1 1 1 2 2 2 3 2 1 2 1 1 2 2 3 2 1 1 1 1 2 3 3 3 2 2 3 4 6 9 11 13 13 14 14 13 13 13 13 12 12 12 12 11 11 11 11 11 11 12 12 13 13 14 14 14 15 15 15 15 15 16 16 16
1 1 2 2 2 2 1 2 2 3 3 3 3 2 1 1 0 1 1 1 1 1 1 2 3 3 2 2 3 2 1 2 1 1 1 2 3 3 1 0 0 1 2 3 3 2 2 2 3 4 6 10 12 14 14 14 14 13 13 13 12 12 11 11 11 11 10 10 10 11 11 12 13 13 14 14 14 15 15 15 15 15 15 16 16 16
2 2 2 2 2 2 2 2 2 2 3 3 3 2 2 2 2 2 2 2 2 2 3 3 2 1 1 2 2 2 1 1 2 2 1 1 3 3 1 0 0 1 2 3 3 2 2 2 3 4 7 11 13 14 15 14 13 13 12 12 11 11 11 10 10 10 10 10 10 11 12 13 13 14 14 14 14 14 15 15 15 15 15 15 16 16
2 2 2 3 3 3 2 2 2 2 2 2 2 2 2 2 2 2 2 2 2 1 1 0 1 2 2 2 2 2 1 1 2 2 1 2 3 3 2 0 1 2 3 3 2 2 2 3 3 4 5 10 12 13 14 13 12 11 11 10 10 10 9 9 9 9 9 10 11 12 13 13 14 14 14 14 14 14 14 14 15 15 15 15 15 16
2 2 2 3 3 3 3 2 2 2 2 2 2 1 1 2 2 1 1 1 1 1 0 1 1 2 2 2 2 2 1 1 2 2 1 1 2 3 2 1 1 2 3 3 2 2 2 3 4 4 4 7 10 12 12 11 11 10 9 9 8 8 8 8 9 9 10 11 12 13 14 14 14 14 14 14 14 14 14 14 15 15 15 15 15 16
2 2 2 1 2 3 5 6 5 4 3 2 2 2 2 2 1 1 1 1 1 1 1 2 3 3 3 2 2 2 2 1 1 2 2 1 2 2 2 1 1 2 3 3 2 2 3 4 4 4 3 4 6 8 9 9 9 8 7 7 7 7 8 8 9 10 11 13 13 14 14 14 14 14 14 14 14 14 14 14 15 15 15 15 15 15
2 3 4 5 6 7 9 10 11 11 11 8 6 4 2 2 1 1 2 2 2 2 2 3 4 4 3 2 2 2 2 1 1 2 2 1 1 2 2 1 1 1 2 3 3 3 4 5 4 4 3 3 3 5 7 8 8 7 7 7 8 9 9 10 11 12 13 14 14 14 15 14 14 14 14 14 14 14 14 15 15 15 15 14 13 11
5 6 6 7 7 7 8 8 9 10 11 11 11 9 4 1 1 2 3 2 2 2 2 3 4 4 3 3 2 2 2 1 1 1 2 1 1 2 2 1 1 1 2 3 4 4 4 4 4 3 3 3 3 4 5 7 8 8 9 10 10 11 12 12 13 14 14 15 15 15 15 15 14 14 14 15 15 15 15 15 15 14 14 11 8 5
5 5 5 5 6 6 6 6 7 8 9 10 10 9 6 1 1 3 3 2 1 1 3 3 4 4 3 3 3 2 2 2 1 1 2 1 1 2 2 1 1 1 2 3 3 3 2 2 2 2 2 3 3 3 4 6 7 8 9 11 12 12 13 14 14 14 15 15 15 15 15 15 15 15 15 15 15 15 15 15 14 13 10 8 5 4
4 4 4 5 5 5 4 4 5 6 8 9 9 8 5 1 2 3 3 2 1 2 3 3 4 4 3 3 3 3 2 2 2 1 3 2 1 2 1 1 1 1 1 3 3 3 2 2 2 2 2 3 3 3 3 4 5 5 6 9 10 11 12 13 14 14 15 15 15 15 15 15 15 15 15 15 15 15 15 15 14 11 7 5 4 4
3 3 3 3 3 3 3 3 3 5 6 7 7 6 4 1 1 2 2 2 2 2 3 3 3 3 3 3 2 2 2 2 2 2 3 1 1 1 1 1 1 1 0 1 2 3 3 3 2 2 2 3 4 4 4 5 5 4 4 5 6 7 11 12 13 13 14 14 15 15 15 15 16 16 15 15 15 15 15 15 13 10 6 4 4 4
2 2 2 2 3 2 2 3 3 3 4 4 4 4 3 2 1 2 2 2 3 3 3 3 3 3 3 3 3 3 2 2 2 3 3 1 1 1 1 1 1 1 1 0 1 2 3 3 3 3 2 3 3 4 4 4 4 4 4 4 4 5 9 10 11 11 11 13 14 15 15 16 16 16 16 16 15 15 15 15 14 10 6 4 4 4
2 2 2 2 2 2 2 2 2 2 3 3 3 3 3 2 1 1 1 2 2 2 2 2 2 3 3 3 3 3 3 2 2 3 3 1 1 1 1 1 1 1 1 1 1 2 2 3 4 4 4 3 3 3 3 4 4 4 4 4 4 4 7 7 7 8 8 10 11 12 14 15 15 15 16 16 15 15 15 15 14 12 8 6 5 5
2 2 2 2 2 2 2 2 2 2 2 2 2 2 2 2 1 1 1 1 2 2 3 3 2 2 2 2 3 3 3 2 3 3 2 1 1 1 2 2 2 2 2 2 2 2 3 4 4 5 4 4 3 3 3 3 4 4 3 3 3 4 4 5 5 5 7 7 7 7 9 10 12 13 14 14 14 14 15 15 15 14 12 9 6 6
2 3 2 2 3 3 3 3 3 2 2 2 2 2 2 1 1 1 1 1 1 1 2 3 3 3 2 2 2 3 3 3 3 4 4 2 2 2 2 2 2 2 2 3 2 2 3 4 5 5 5 5 4 3 2 3 3 3 2 3 3 4 4 4 4 5 6 6 5 5 5 6 7 8 9 11 12 13 14 15 15 15 15 13 11 8
3 3 3 3 3 3 3 3 3 2 2 2 2 2 2 1 1 1 1 1 1 2 2 2 2 3 3 3 3 3 4 3 3 4 4 3 2 2 3 3 3 3 3 3 3 3 3 4 5 6 7 6 5 4 2 2 2 2 2 3 3 4 4 4 4 4 5 5 5 5 5 5 5 6 7 10 12 13 14 15 15 15 15 15 14 13
2 3 3 2 2 2 2 2 2 2 2 2 2 2 2 2 2 2 1 1 1 2 2 2 3 3 3 3 3 3 4 3 3 4 4 3 2 2 3 3 4 4 3 3 4 4 4 5 5 6 6 6 5 4 3 2 2 2 3 3 3 4 5 5 5 5 4 5 5 5 5 5 5 6 7 10 11 12 13 14 14 14 15 16 16 16
2 2 3 2 2 1 2 2 2 2 2 2 2 2 2 2 2 2 2 2 2 2 2 2 3 3 5 5 4 4 4 4 4 5 5 4 3 3 3 4 4 4 3 3 3 4 4 4 5 6 5 5 6 6 5 4 4 3 4 4 4 4 5 5 5 5 4 5 6 6 6 6 5 5 5 6 6 6 7 7 9 11 13 13 14 15
2 2 3 2 2 2 2 2 2 3 3 2 2 2 2 2 2 2 2 2 2 2 3 3 3 3 4 5 6 6 5 5 5 5 5 4 3 3 4 4 4 4 3 3 3 3 4 4 5 5 5 6 6 6 5 5 5 5 5 5 4 4 4 4 4 4 4 4 5 6 6 5 5 4 4 4 3 3 4 4 5 7 7 6 8 11
2 2 3 3 3 2 3 3 3 3 3 2 1 1 1 1 2 2 2 2 2 2 3 3 3 3 4 4 5 5 5 5 5 5 4 4 3 4 4 4 4 4 3 3 3 4 4 5 6 6 6 6 6 6 6 6 6 6 7 6 5 4 3 3 3 4 4 4 4 4 4 4 4 4 4 3 3 4 4 4 4 5 5 4 4 5
2 2 3 3 3 2 3 3 3 3 3 2 1 1 1 1 2 2 2 2 2 2 2 2 2 2 3 3 3 4 5 5 5 5 4 4 5 4 4 4 4 4 3 4 4 4 5 5 6 7 7 7 7 8 8 8 8 9 9 7 6 6 5 5 5 4 4 4 4 4 4 4 5 5 4 5 4 4 4 4 4 5 5 4 4 4
3 3 3 3 2 2 2 3 4 4 3 1 1 1 1 1 1 1 2 2 2 2 2 2 2 3 3 3 3 4 4 5 5 5 5 6 6 5 5 4 4 4 3 4 4 5 5 6 6 7 6 6 7 7 8 8 8 8 8 8 8 8 8 7 5 3 3 3 3 4 5 5 5 4 5 5 5 5 5 5 6 6 6 5 4 4
3 3 3 3 3 3 3 4 4 4 3 1 1 1 2 1 1 1 2 2 2 2 2 2 2 3 3 4 4 3 3 4 4 5 5 5 5 5 5 5 5 4 4 4 4 5 5 6 6 6 6 6 6 7 9 8 8 8 8 8 8 7 6 4 3 3 3 4 4 4 4 5 5 5 5 5 5 5 5 6 8 9 8 6 5 5
4 3 3 3 3 3 3 3 3 3 2 2 2 2 2 2 2 3 3 3 3 3 3 3 3 3 3 4 4 3 3 3 3 4 4 5 6 6 5 5 5 5 4 4 4 4 5 6 6 6 6 6 7 8 8 8 8 8 7 7 7 7 6 6 6 6 6 6 5 4 4 4 4 5 5 5 5 5 5 5 5 6 7 6 6 6
2 2 2 3 3 3 3 3 3 2 2 2 2 2 2 3 3 3 3 3 3 3 2 2 3 3 4 4 4 3 3 2 2 3 3 5 7 7 6 5 5 5 5 5 5 5 5 5 6 5 5 6 7 8 8 8 8 8 8 8 8 8 8 7 7 7 6 7 6 5 4 4 4 5 5 6 6 6 5 5 6 6 6 6 6 6
2 2 2 2 2 3 3 3 3 2 2 3 3 3 3 3 2 3 3 3 3 3 3 3 3 3 4 4 4 4 3 3 3 3 2 3 4 4 5 5 5 5 5 5 5 6 6 6 5 5 5 6 7 8 8 8 8 8 8 8 8 8 8 7 7 7 7 7 6 5 5 4 4 5 6 7 7 7 6 6 6 6 6 6 6 6
2 2 2 2 2 3 3 3 3 3 3 3 3 3 3 2 2 2 2 3 3 3 3 3 3 3 4 4 4 4 4 4 4 3 3 3 3 3 3 4 5 5 5 5 6 6 7 7 6 6 6 7 8 8 8 8 8 8 8 8 7 7 7 7 7 6 6 6 6 5 4 4 5 6 7 7 7 7 7 6 6 6 6 6 6 6
3 3 3 2 2 2 2 2 2 2 3 3 3 3 3 3 3 3 3 2 2 3 3 3 3 4 5 4 4 4 5 5 4 4 3 3 3 3 3 3 3 4 5 5 6 7 7 8 8 8 8 8 8 8 9 8 8 8 8 7 7 7 8 7 7 6 6 5 5 5 4 4 5 6 7 7 8 8 7 7 6 6 5 5 5 5
2 2 2 2 2 2 2 2 3 3 3 3 3 3 2 3 4 5 3 2 2 3 3 4 4 5 5 5 5 5 6 5 5 4 3 3 2 2 2 2 2 3 3 4 5 6 6 8 9 10 10 9 9 9 9 9 8 7 7 7 7 7 8 7 7 6 6 6 5 5 4 4 5 6 6 7 8 9 9 8 7 6 5 5 5 5
2 2 3 2 2 3 3 3 3 3 3 4 3 3 2 3 3 3 3 3 3 3 3 4 5 5 5 5 5 5 6 5 4 4 3 3 2 2 2 2 2 3 3 3 3 4 4 5 7 9 12 12 12 11 10 9 8 7 7 7 7 7 7 7 7 6 5 5 5 5 5 5 5 5 5 7 9 10 10 9 8 7 5 5 5 5
3 3 3 2 3 3 3 3 3 4 4 4 4 4 3 3 3 3 2 2 3 3 3 4 4 5 6 6 6 6 6 5 5 4 3 3 2 3 3 3 3 3 3 3 3 3 3 3 4 5 8 13 15 14 10 8 7 6 7 6 6 5 5 6 6 5 5 5 5 5 5 5 5 5 5 6 7 9 10 9 8 7 6 5 5 5
Wind_Direction
26 57 91 122 135 141 147 135 134 137 135 112 75 57 86 115 126 143 168 171 161 144 140 145 154 181 219 239 246 250 253 256 259 262 264 268 270 272 273 274 276 277 280 283 286 288 290 290 289 287 286 285 283 282 280 279 278 278 278 279 281 282 284 285 287 288 289 291 292 292 293 295 296 296 297 296 296 295 294 293 292 291 289 288 288 287
20 38 54 84 105 115 109 85 92 112 120 114 104 84 71 90 109 133 166 167 156 145 150 156 164 175 200 236 250 255 257 259 262 266 269 273 276 278 279 280 282 285 289 293 297 298 298 297 295 293 290 288 286 283 282 280 278 278 278 278 279 280 281 282 284 285 286 287 288 289 290 290 290 291 290 290 289 288 287 286 285 285 284 285 285 285
18 29 36 45 53 63 73 69 69 80 101 117 128 129 112 104 106 117 140 147 143 142 151 160 168 179 195 228 248 256 260 263 266 270 274 277 279 281 282 284 288 294 300 303 305 304 303 300 297 294 292 289 286 284 282 280 278 277 277 277 278 279 280 281 282 283 284 285 285 285 285 286 285 285 285 284 283 283 283 282 283 284 284 285 286 286
27 33 36 39 40 43 52 77 87 94 104 118 131 138 143 149 142 127 124 123 131 143 159 168 178 189 200 226 248 259 264 268 272 276 278 280 281 283 285 291 297 304 309 309 308 306 303 299 296 293 290 287 285 283 281 279 278 278 278 278 280 281 283 284 285 286 287 287 286 286 285 284 283 282 282 281 281 281 281 282 283 284 285 286 286 286
41 47 49 47 43 42 47 79 102 113 113 114 122 132 146 159 155 134 122 133 149 168 181 185 191 200 208 225 252 265 272 276 279 281 282 282 285 288 293 300 308 312 314 312 309 305 301 297 293 290 288 285 283 281 280 279 279 280 281 283 286 288 290 291 291 291 291 290 289 288 287 285 284 283 282 282 281 281 282 283 283 284 284 284 284 283
50 51 55 52 50 50 52 81 106 118 108 102 105 115 129 141 143 145 152 165 177 188 197 197 200 203 213 236 266 278 283 287 290 291 290 293 296 302 308 313 316 317 315 311 307 303 298 295 291 289 287 284 283 283 283 283 284 287 290 291 293 294 294 294 293 292 291 290 289 288 287 286 285 284 283 282 282 282 282 282 283 283 283 282 281 281
57 51 54 55 53 51 49 75 106 117 112 107 108 109 121 134 153 166 177 183 189 196 207 214 214 214 224 274 292 296 298 301 303 304 306 314 322 326 326 323 321 318 315 310 306 302 299 295 294 293 292 290 290 290 292 292 294 296 297 297 296 296 294 293 292 291 290 289 288 287 287 286 284 283 283 282 281 281 281 281 281 281 281 280 280 280
74 63 57 61 65 64 53 57 86 107 116 121 125 132 147 162 175 181 185 185 187 196 222 258 269 279 312 349 339 327 318 312 310 310 315 336 346 343 336 329 325 320 316 311 307 305 303 303 302 302 302 302 301 301 301 301 301 301 300 298 297 295 293 291 290 289 288 287 286 285 285 284 283 282 281 281 280 280 280 280 280 280 279 280 280 280
81 76 58 53 65 89 84 57 56 71 98 117 131 143 155 169 182 196 195 189 149 64 37 314 299 301 319 5 7 353 332 301 281 277 308 355 358 349 342 338 331 324 317 314 311 310 311 311 311 310 309 307 306 304 304 303 302 301 300 297 295 293 291 289 287 286 285 284 283 283 282 281 281 280 279 279 278 278 277 277 277 277 278 279 280 281
70 70 59 33 31 68 98 84 50 31 48 91 112 128 140 140 116 350 335 322 346 11 27 10 311 300 313 339 352 351 330 301 295 314 5 10 2 354 350 348 340 330 321 318 316 316 316 315 314 312 309 306 304 302 302 301 300 299 297 294 292 289 287 285 284 283 282 281 280 280 280 279 279 278 277 276 275 274 274 274 275 276 277 278 279 280
54 52 53 28 16 27 72 83 61 23 36 65 74 78 100 103 103 35 317 306 322 343 4 6 338 292 300 315 332 345 348 333 338 351 6 6 3 0 357 351 343 334 325 322 320 319 317 315 312 310 308 305 303 302 301 300 298 296 293 290 287 285 283 281 280 279 278 278 278 277 278 277 277 276 276 275 274 273 273 273 274 275 276 277 278 278
39 34 39 27 14 17 34 43 33 24 40 60 40 350 331 13 68 126 206 265 297 324 339 331 314 276 247 284 319 339 359 4 359 356 357 358 3 5 3 354 343 335 328 323 319 316 314 312 310 309 307 306 304 302 300 298 296 293 289 286 283 281 279 278 277 276 276 276 276 276 277 277 276 276 275 275 274 274 274 274 275 275 275 276 276 277
21 15 19 16 11 8 11 14 13 14 28 60 102 253 276 327 17 89 153 220 269 314 324 317 310 297 258 252 305 343 5 8 3 355 353 349 354 3 10 353 337 328 325 321 314 307 305 305 306 306 305 304 303 301 300 297 293 290 285 282 279 277 276 275 275 275 275 276 276 277 278 278 278 277 277 276 276 276 276 276 276 276 276 276 277 277
7 5 14 5 355 351 357 6 7 359 341 337 235 227 243 299 22 66 92 31 325 320 328 327 316 308 301 311 350 33 44 25 11 1 353 329 320 331 34 327 304 296 303 304 295 288 288 294 298 300 299 299 299 298 295 293 290 286 282 279 277 275 275 275 275 276 277 278 279 279 280 280 280 280 280 280 280 280 280 280 279 279 279 279 279 280
9 14 17 351 333 328 341 354 352 330 302 294 287 289 318 5 33 59 82 23 337 338 4 4 343 323 312 323 352 42 68 54 34 8 344 313 297 271 120 289 286 282 273 274 275 278 281 285 285 284 286 288 288 288 288 286 285 283 282 280 278 278 277 277 278 279 280 281 281 282 282 283 284 284 284 285 285 285 285 284 283 283 283 283 283 283
44 60 57 319 308 311 317 323 321 305 296 303 319 352 24 22 27 48 85 77 5 6 28 26 4 336 316 321 347 51 73 71 62 29 341 303 292 263 131 154 278 278 266 260 265 270 278 277 272 269 274 281 285 288 290 289 287 286 285 283 282 281 281 281 281 281 282 282 283 284 285 286 287 287 288 288 288 288 288 287 286 285 285 284 284 283
84 93 112 351 309 304 297 294 280 269 282 314 342 14 45 40 39 57 87 91 59 41 44 56 41 341 312 320 334 22 76 83 81 57 335 294 282 257 144 161 246 266 267 261 260 265 272 275 275 273 272 280 286 292 295 295 293 292 290 288 286 284 283 283 282 282 282 283 284 286 287 288 289 289 289 289 289 289 288 288 287 286 285 284 283 283
81 110 118 102 300 290 291 300 301 300 307 337 359 13 40 39 47 65 85 94 86 75 61 82 118 172 260 297 299 304 77 88 78 11 315 288 279 265 165 177 220 248 261 261 260 259 261 265 268 271 275 288 293 297 300 299 297 294 292 290 287 285 284 283 283 283 283 284 286 288 289 290 291 291 291 291 291 291 290 289 288 288 287 286 285 284
191 177 141 155 202 252 284 290 290 291 302 273 51 50 33 16 24 42 57 86 110 121 126 124 170 203 196 248 266 274 110 96 70 333 300 288 281 272 204 193 220 241 253 256 257 256 256 260 267 274 281 292 297 299 300 298 296 294 291 288 286 284 283 282 282 283 284 286 288 290 291 292 293 293 294 294 294 293 293 292 291 290 289 288 288 287
172 201 189 181 179 190 298 276 254 227 204 179 140 105 73 25 17 23 15 37 97 119 123 135 189 232 224 248 265 277 123 91 68 314 286 281 277 272 250 202 219 241 257 257 255 254 254 261 273 282 288 292 295 296 296 294 293 291 288 286 284 283 282 282 282 283 285 287 289 291 293 294 295 297 298 297 297 295 294 292 291 291 290 289 289 288
143 199 218 187 161 142 268 257 238 215 188 148 116 94 86 50 11 345 301 339 60 82 95 150 216 226 218 240 257 263 161 112 103 287 283 281 278 273 257 204 204 238 261 263 261 258 256 265 270 276 280 288 291 292 292 291 290 288 286 284 282 281 281 281 282 284 286 288 290 292 295 297 299 300 300 299 297 296 294 293 292 291 290 289 289 288
145 191 223 194 176 175 220 232 225 201 170 143 129 122 154 155 207 245 227 187 173 181 193 213 220 219 205 228 245 247 162 143 156 194 274 286 282 278 274 222 184 243 258 263 267 267 266 264 263 268 273 283 287 290 290 290 288 287 284 282 281 280 280 281 282 284 286 289 292 295 297 299 300 300 299 298 296 295 294 293 292 291 290 289 288 288
147 183 212 202 200 205 220 229 227 205 174 165 169 178 181 175 184 195 192 184 185 194 203 215 226 237 240 253 264 267 219 171 154 143 148 263 272 274 280 321 303 265 259 262 267 273 276 266 260 264 273 282 286 288 289 288 287 285 283 281 280 280 280 282 284 286 288 291 295 297 299 300 300 299 297 295 294 293 291 291 290 290 289 289 288 288
155 183 202 203 205 210 219 231 233 222 200 197 196 193 182 178 177 177 174 174 175 179 192 240 322 323 306 288 287 287 271 190 145 131 140 237 258 267 273 280 277 270 265 257 258 267 280 275 265 262 267 279 284 286 288 288 288 286 284 282 281 281 282 284 287 290 293 296 298 299 300 299 298 296 294 292 291 290 289 289 289 289 289 288 288 288
172 189 203 205 209 215 230 246 241 220 202 207 216 224 214 206 192 171 142 140 136 128 52 334 315 303 293 282 280 282 278 207 149 145 153 234 261 269 269 243 245 262 270 267 264 270 284 283 278 270 265 275 283 288 291 293 292 291 288 286 286 287 289 292 295 298 299 300 300 300 299 297 295 293 291 290 289 289 288 289 289 289 289 288 288 288
170 194 214 247 283 306 321 332 332 324 307 262 227 220 217 214 207 185 154 167 185 223 266 278 279 279 279 270 265 265 269 249 179 166 161 209 263 275 273 245 232 255 275 277 278 280 287 287 284 279 272 277 288 296 300 303 304 303 300 300 301 302 304 304 303 303 302 301 300 299 297 295 293 291 290 289 288 288 288 288 289 289 289 289 289 289
30 8 0 356 353 351 348 346 339 330 324 313 297 268 223 187 181 209 229 221 214 222 250 272 280 283 284 277 266 258 257 242 209 189 168 181 253 272 273 269 271 283 287 288 285 283 284 284 285 285 286 290 303 311 314 320 323 326 325 322 320 317 314 310 307 304 302 301 299 297 295 293 292 290 289 288 288 288 288 289 289 289 290 290 290 290
24 18 14 8 3 358 353 345 336 328 321 313 305 297 282 211 189 226 241 229 216 221 247 267 278 283 285 279 274 269 259 242 222 195 154 146 236 259 268 286 307 307 303 298 291 283 278 277 280 287 297 306 312 320 327 336 340 341 338 331 325 320 314 310 306 303 301 299 297 295 294 292 291 290 289 289 289 289 289 290 290 290 290 290 289 290
25 23 22 16 10 5 358 347 334 323 316 310 306 303 303 275 211 228 239 224 212 231 252 262 270 276 283 286 288 284 270 253 229 173 128 122 218 258 269 297 312 320 326 313 306 297 285 277 279 288 297 308 316 322 328 339 341 339 334 328 322 317 312 308 305 302 299 297 295 294 292 292 291 290 290 290 290 290 290 290 290 290 289 288 286 284
9 10 10 6 4 1 354 338 323 317 315 314 311 309 310 288 214 217 226 201 199 225 247 258 265 271 279 288 292 290 276 265 244 171 125 130 213 264 279 304 310 321 351 333 324 316 311 301 291 286 289 313 322 328 327 332 332 329 326 322 317 312 307 303 301 298 296 295 293 292 292 291 291 291 290 290 290 290 290 291 290 290 288 285 283 280
346 345 336 333 334 334 330 315 310 312 314 316 317 316 317 293 217 206 205 186 188 205 228 245 254 260 265 275 281 282 279 268 242 184 134 143 219 253 248 295 295 287 69 359 336 321 316 311 302 296 305 324 328 327 325 322 320 318 312 311 307 302 298 296 295 294 293 292 291 291 291 291 291 291 290 290 290 290 290 291 291 290 287 285 281 277
316 314 304 302 304 309 312 310 311 313 314 316 318 318 316 302 249 206 195 185 183 187 204 224 237 245 247 252 257 263 273 265 219 185 156 166 232 250 215 260 275 261 192 122 307 300 304 302 302 306 317 321 318 314 312 308 304 298 292 291 288 287 287 287 288 289 289 289 290 290 289 290 290 289 289 290 290 290 290 291 290 289 287 281 275 271
293 292 289 295 300 305 308 313 315 317 315 316 316 315 314 309 288 232 196 187 178 177 181 199 221 238 246 248 252 258 270 270 229 203 189 193 236 260 251 269 279 278 264 237 230 243 265 282 293 302 306 303 299 294 292 286 280 275 273 272 272 275 278 280 281 283 284 285 286 287 287 287 287 287 287 288 288 289 289 290 289 288 284 278 272 269
301 300 303 311 314 317 318 320 320 319 317 318 317 316 316 317 316 299 222 203 191 183 175 185 201 222 243 254 262 267 272 279 287 291 288 258 263 279 288 288 289 291 293 279 263 258 263 275 287 296 300 298 292 283 277 271 267 264 259 255 257 263 269 271 273 274 276 278 279 280 281 282 282 283 284 285 285 286 287 287 286 285 283 280 276 274
323 320 321 327 328 327 325 325 322 320 318 315 312 310 311 318 323 319 295 254 231 211 194 193 196 202 213 237 261 273 276 279 305 324 336 326 305 295 292 285 286 289 291 285 282 280 279 281 286 291 297 298 295 286 268 258 258 260 259 248 248 252 258 260 262 266 270 271 270 269 269 270 272 274 276 278 279 281 283 284 284 285 285 284 284 284
332 325 322 324 324 322 318 315 313 311 307 298 292 288 291 293 292 287 278 269 260 252 241 231 220 212 206 216 236 256 268 270 288 306 315 307 299 290 285 281 281 284 284 282 282 282 284 286 287 289 291 293 295 294 283 261 256 263 268 255 250 250 253 252 252 255 262 265 265 264 260 259 258 260 263 270 274 277 281 283 286 287 288 288 288 288
329 317 310 310 309 307 302 299 296 291 284 279 276 273 272 270 270 269 262 256 257 263 267 268 263 255 246 234 233 240 254 262 272 279 283 278 272 269 272 277 278 277 274 277 279 282 283 286 288 288 286 285 288 292 294 289 280 274 268 261 256 255 256 252 249 248 251 256 259 259 256 253 252 253 256 266 272 277 282 285 287 288 288 288 288 287
324 308 299 295 294 290 287 282 277 270 266 261 259 258 258 258 264 270 275 273 273 274 280 280 280 279 277 273 266 258 256 258 261 264 265 261 257 255 262 271 273 272 266 268 272 276 279 281 285 287 285 282 282 284 290 294 293 287 279 269 262 256 253 251 246 243 243 249 254 257 258 255 253 253 257 264 270 276 280 281 282 283 285 286 286 286
303 292 287 281 270 258 253 259 261 263 264 263 257 252 250 262 270 274 276 275 273 270 268 268 272 276 278 280 278 275 270 262 257 254 254 250 248 248 254 263 267 268 264 261 260 263 265 269 274 278 283 285 286 286 288 289 291 291 292 285 274 258 246 244 243 243 243 247 254 260 263 261 258 257 260 263 266 268 270 271 273 274 278 280 284 285
274 272 271 265 251 234 230 244 256 263 267 272 280 289 289 303 306 304 295 288 282 275 265 261 263 267 271 274 274 274 271 264 256 250 244 238 236 239 245 253 259 263 263 257 253 252 254 260 265 269 273 279 285 288 289 288 290 293 297 296 291 280 264 261 258 255 251 249 254 260 265 264 261 259 260 259 258 258 259 263 268 271 272 273 278 284
259 261 261 259 249 239 242 259 270 275 277 278 292 318 322 331 332 331 326 324 317 307 298 293 289 287 287 278 268 261 258 258 253 245 234 228 230 233 240 245 250 255 256 255 251 249 249 255 261 265 267 272 277 281 283 284 287 290 292 291 291 290 290 284 276 269 265 261 259 263 271 277 278 276 273 271 267 261 258 261 266 270 271 263 260 263
246 256 267 276 278 278 277 283 284 284 282 273 258 262 274 284 303 315 317 317 309 302 297 299 299 301 302 294 279 264 253 251 247 241 236 229 227 228 233 239 242 245 248 252 252 250 248 252 256 260 263 269 274 277 279 280 282 283 283 285 289 293 292 286 278 270 272 275 276 278 282 285 285 283 281 278 274 270 265 261 263 267 269 263 255 250
259 272 285 290 287 281 276 278 280 281 279 267 254 251 249 248 257 272 282 281 279 278 278 278 283 289 294 293 288 278 261 250 245 241 237 230 225 224 228 232 235 237 239 247 252 254 252 252 254 257 260 264 268 272 276 279 280 279 277 280 287 292 293 291 289 288 286 285 283 282 279 278 277 277 277 277 276 273 270 267 267 267 267 266 261 255
270 276 278 272 266 263 263 264 267 268 268 266 269 274 281 277 278 279 280 277 279 282 284 285 285 284 282 282 283 279 268 260 253 248 245 237 229 224 225 228 230 231 230 238 247 254 257 255 254 255 257 259 262 266 270 274 277 277 276 277 277 277 277 285 293 295 292 288 284 277 271 272 276 279 281 279 277 274 268 264 261 260 259 258 256 256
271 273 270 266 265 265 262 260 261 263 266 270 275 280 285 279 275 273 274 274 278 281 281 283 285 284 280 282 284 284 279 275 268 262 258 254 249 243 233 228 227 228 228 232 237 245 252 256 258 258 257 257 258 261 265 270 274 276 276 275 274 272 271 277 284 287 287 286 284 280 275 275 281 284 284 281 278 273 267 262 259 257 253 250 249 250
266 274 276 273 270 267 266 266 267 267 268 270 272 273 273 265 261 261 264 268 273 276 274 270 271 275 280 286 290 292 290 285 277 269 262 262 258 251 241 235 231 229 229 232 235 239 243 250 257 261 264 263 260 259 260 265 269 273 275 275 275 274 274 275 276 276 278 280 281 280 277 277 279 280 280 281 280 277 271 265 261 258 256 252 249 248
251 259 264 264 261 259 260 264 267 267 268 268 268 268 267 259 255 255 260 261 266 270 273 270 269 272 278 284 287 289 288 287 283 276 264 259 256 253 249 244 239 236 234 236 237 240 242 245 248 253 259 264 265 264 262 261 263 266 270 272 273 273 273 273 272 272 272 273 273 274 275 276 276 276 277 279 280 280 276 272 266 261 258 256 254 252
252 254 257 260 261 262 264 265 264 265 266 268 267 267 265 262 263 265 266 265 273 281 287 286 284 280 279 280 280 280 282 283 283 280 273 263 257 253 250 248 245 243 242 243 243 244 244 243 242 243 247 254 261 265 266 263 261 261 265 268 269 270 270 271 271 270 268 265 263 262 263 267 271 274 278 280 281 280 279 276 271 266 261 259 259 259
272 272 276 278 278 275 273 270 268 268 267 270 271 270 268 272 276 278 279 278 281 283 286 285 283 281 279 278 278 279 281 282 282 280 274 266 262 259 256 253 253 254 256 253 251 250 250 246 241 237 237 241 249 257 262 262 260 260 261 262 263 265 267 269 269 269 268 266 262 257 253 257 260 265 272 278 280 281 281 280 277 273 268 265 264 262
303 301 299 296 289 283 280 277 274 273 272 275 277 278 277 275 273 272 268 267 267 268 270 274 277 279 281 282 282 281 281 280 279 277 272 266 264 264 262 261 262 264 267 264 259 256 255 252 244 237 232 232 235 242 253 257 259 259 258 257 257 259 263 267 269 269 269 270 268 264 259 260 260 261 265 272 277 281 283 282 280 278 274 270 265 263
304 303 300 294 287 281 278 276 276 276 277 279 280 279 276 271 263 255 247 248 255 261 266 269 272 274 277 279 280 280 279 279 278 277 272 268 267 267 267 264 265 268 272 272 270 268 267 268 263 251 237 230 228 229 238 245 251 256 257 255 254 254 259 265 267 269 269 270 269 267 265 264 264 263 263 270 276 281 283 282 281 279 277 272 267 265